Regional Weather Roundup
Issued by NWS

Home | Current Version | Previous Version | Graphics & Text | Print | Product List | Glossary On
Versions: 1 2 3 4 5 6 7 8 9 10 11 12 13 14 15 16 17 18 19 20 21 22 23 24 25 26 27 28 29 30 31 32 33 34 35 36 37 38 39 40 41 42 43 44 45 46 47 48 49 50
930
ASUS44 KJAN 300310
RWRMS

MISSISSIPPI HOURLY WEATHER ROUNDUP
NATIONAL WEATHER SERVICE JACKSON MS
1000 PM CDT TUE JUL 29 2014

NOTE: "FAIR: INDICATES FEW OR NO CLOUDS BELOW 12,000 FEET WITH NO
SIGNIFICANT WEATHER AND/OR OBSTRUCTIONS TO VISIBILITY.

MSZ001>002-007>008-010>013-018>021-025>028-034>036-300400-
NORTHWEST MISSISSIPPI

CITY           SKY/WX    TMP DP  RH WIND       PRES   REMARKS
CLARKSDALE     FAIR      66  64  94 CALM      30.11R
CLEVELAND      FAIR      67  63  85 CALM      30.09R
GREENWOOD      CLEAR     66  62  87 CALM      30.09R
GREENVILLE     CLEAR     68  62  81 CALM      30.09R
GRENADA        FAIR      63  61  94 CALM      30.10R
OLIVE BRANCH   CLEAR     66  61  82 CALM      30.10S
OXFORD         FAIR      63  59  88 CALM      30.12R
TUNICA         CLEAR     68  61  77 CALM      30.11R
$$

MSZ003>006-009-014>017-022>024-029>033-037>039-300400-
NORTHEAST MISSISSIPPI

CITY           SKY/WX    TMP DP  RH WIND       PRES   REMARKS
BELMONT        FAIR      63  58  83 CALM      30.09S
COLUMBUS AFB   CLEAR     65  58  78 N5        30.08S
CORINTH        FAIR      63  59  88 CALM      30.09S
GOLDN TRIANGLE CLEAR     64  55  72 N6        30.08S
STARKVILLE     FAIR      64  59  82 CALM      30.09R
TUPELO         CLEAR     67  57  70 CALM      30.09R
$$

MSZ040-058-300400-
CENTRAL MISSISSIPPI

CITY           SKY/WX    TMP DP  RH WIND       PRES   REMARKS
JACKSON INTL   CLEAR     70  61  73 N5        30.07R
JACKSON HAWKNS CLEAR     74  58  57 N3        30.08R
MERIDIAN KEY   CLEAR     71  57  61 N8        30.06R
MERIDIAN NAS   CLEAR     70  57  63 N5        30.07R
RAYMOND        FAIR      68  64  88 CALM      30.08R
VICKSBURG      CLEAR     71  63  75 N7        30.07R
$$

MSZ059>079-300400-
SOUTH MISSISSIPPI

CITY           SKY/WX    TMP DP  RH WIND       PRES   REMARKS
BROOKHAVEN     FAIR      72  64  78 N3        30.09R
COLUMBIA       FAIR      75  64  69 N7        30.04R
HATTIESBURG    CLEAR     78  65  63 N6        30.05R
MCCOMB         CLEAR     78  65  63 N7        30.06R
NATCHEZ        CLEAR     75  64  69 NE6       30.07S
PINE BELT      CLEAR     75  61  60 N7        30.06R
$$

MSZ080>082-300400-
COASTAL MISSISSIPPI

CITY           SKY/WX    TMP DP  RH WIND       PRES   REMARKS
BILOXI         PTCLDY    81  68  65 VRB2      30.01R
PASCAGOULA     CLOUDY    75  71  87 CALM      30.01R
GULFPORT       PTCLDY    81  67  62 W3        30.00R
$$



USA.gov is the U.S. government's official web portal to all federal, state and local government web resources and services.